CAPE
551 651 443 179 1 7 481 588 744 1391 1368 1331 1185 1204 992 971 1358 812 663 631 35 8
835 712 739 351 200 0 315 1024 830 1340 1382 1316 1250 1292 1336 1172 1172 1444 723 485 828 97
769 1435 968 543 488 777 24 823 1081 1113 1739 1394 1288 1099 1215 1765 1369 1481 1276 894 480 607
687 604 1441 936 229 365 735 86 755 1171 1445 1728 1483 1226 1109 1348 1875 1372 1522 1459 994 630
1249 828 628 1462 828 397 536 773 101 1267 1341 1671 1679 1463 1406 1325 1745 1992 1626 1563 1323 1109
1538 1382 990 764 1581 1113 629 856 1032 1420 1449 1639 1640 1709 1729 1572 1575 1618 1825 1726 1460 1387
1648 1776 1598 1138 949 1760 1369 636 1198 1692 1803 1803 1785 1682 1739 1984 1913 1696 1613 1691 1680 1501
1601 1821 2015 1758 1361 1269 1619 1816 1015 1593 1837 2000 1952 2014 1905 1739 1829 2027 1904 1589 1906 1832
2017 1886 1949 2146 1965 1552 1431 1337 1974 1762 1984 1969 2266 2211 1836 2011 2049 1929 1910 1917 1750 1728
2117 2280 2193 2172 2219 2226 1964 1668 1287 1741 2091 2079 2247 2243 1308 1149 2055 2123 2089 2035 2006 2011
2392 2358 2397 2237 2198 2191 2310 2381 2144 1690 1809 2182 2143 2125 953 562 1853 2164 2150 2199 2191 2182
2347 2597 2463 2437 2292 2332 2376 2393 2570 2570 2363 2014 2140 1967 906 195 1514 2095 2395 2383 2304 2407
2324 2515 2624 2528 2546 2505 2522 2659 2625 2666 2805 2771 2661 2337 857 105 1953 2167 2308 2533 2606 2057
1811 2387 2553 2671 2653 2680 2762 2666 2709 2798 2806 2899 2836 2943 1034 41 2115 2582 2604 2597 2655 2670
CIN
-260 -205 -249 -328 -27 -381 -202 -159 -135 -95 -100 -104 -108 -103 -131 -124 -88 -141 -160 -158 -206 -196
-222 -216 -227 -321 -348 0 -296 -132 -141 -110 -105 -115 -108 -101 -102 -111 -109 -83 -169 -194 -172 -326
-277 -169 -199 -263 -299 -240 -203 -171 -130 -140 -97 -117 -119 -132 -122 -83 -107 -86 -120 -174 -237 -239
-315 -319 -138 -211 -402 -324 -235 -322 -198 -151 -120 -99 -117 -132 -142 -120 -89 -126 -115 -122 -183 -226
-248 -311 -344 -150 -267 -344 -279 -235 -402 -176 -140 -111 -112 -132 -134 -138 -89 -76 -120 -138 -159 -203
-245 -249 -321 -342 -172 -227 -293 -223 -195 -152 -151 -138 -153 -136 -118 -114 -111 -127 -109 -139 -173 -204
-300 -253 -266 -329 -334 -173 -209 -299 -193 -161 -150 -158 -155 -152 -134 -111 -114 -130 -149 -141 -156 -181
-376 -314 -244 -266 -316 -305 -207 -170 -262 -182 -164 -145 -142 -125 -138 -152 -138 -119 -131 -184 -157 -168
-364 -369 -325 -267 -289 -319 -325 -322 -194 -230 -203 -203 -140 -140 -208 -147 -125 -141 -134 -139 -183 -202
-399 -352 -347 -333 -297 -286 -318 -344 -407 -312 -249 -247 -227 -204 -372 -391 -174 -161 -165 -167 -161 -171
-391 -381 -358 -348 -344 -345 -299 -285 -324 -394 -364 -291 -295 -280 -517 -608 -265 -178 -193 -211 -212 -199
-446 -401 -397 -382 -379 -363 -336 -320 -299 -302 -331 -386 -361 -362 -568 -768 -339 -217 -178 -187 -218 -217
-448 -423 -421 -419 -387 -373 -346 -318 -307 -308 -293 -301 -296 -315 -649 -891 -266 -238 -197 -164 -198 -322
-472 -448 -415 -398 -386 -353 -327 -310 -305 -302 -295 -278 -273 -225 -630 -1032 -274 -217 -157 -200 -234 -228
Wind_Speed
14 10 9 8 5 7 8 7 9 10 8 9 8 6 6 4 4 5 4 6 4 3
13 14 12 10 8 5 6 7 9 12 11 9 8 8 7 5 6 5 5 6 6 4
15 14 13 10 9 8 8 8 10 11 11 10 10 9 8 5 5 6 5 4 6 5
15 14 11 10 10 11 7 9 9 11 11 12 11 10 7 8 8 10 8 6 7 7
14 14 13 12 11 11 12 8 11 9 11 11 11 12 13 12 11 11 10 10 8 11
16 15 15 16 14 13 12 12 7 9 11 14 15 14 14 12 11 11 12 11 12 13
17 17 16 16 16 14 13 11 9 11 13 13 13 15 15 14 13 12 12 11 12 12
18 17 17 16 16 16 14 12 13 12 12 13 13 11 14 15 15 15 14 12 13 13
18 17 17 16 16 15 15 15 13 14 13 14 12 16 19 17 15 15 15 14 13 14
17 16 17 16 16 16 17 15 17 16 16 16 15 17 20 21 15 15 16 16 14 13
16 16 16 15 16 16 14 16 16 17 17 16 15 16 19 20 19 16 16 17 17 16
17 17 16 16 17 16 15 15 16 16 17 18 16 16 17 15 14 16 19 16 16 17
16 17 18 17 16 15 15 15 13 15 16 17 16 15 19 18 12 16 13 15 19 20
16 18 17 16 14 13 14 14 14 15 14 15 14 14 18 20 14 13 12 13 14 13
Wind_Direction
184 195 201 197 186 192 193 192 188 198 198 202 186 193 190 179 184 177 195 193 193 180
190 198 202 203 198 185 178 187 192 193 195 197 189 187 184 191 196 180 192 209 204 201
192 194 201 195 193 190 186 194 189 193 195 196 198 188 180 192 191 190 200 204 210 216
200 200 189 197 201 206 193 191 197 195 195 200 200 195 183 197 199 201 202 198 203 225
194 194 197 198 203 204 210 201 196 193 191 193 198 199 200 201 202 205 206 204 200 221
194 193 199 204 204 205 209 212 188 178 187 194 199 200 208 209 207 206 212 205 206 218
194 195 197 203 207 204 207 207 194 195 195 199 199 202 204 206 210 216 216 212 213 217
197 197 198 198 205 208 204 206 210 203 207 201 199 201 205 209 212 215 222 217 219 221
194 199 199 200 200 203 207 210 206 213 206 207 211 202 200 205 214 218 220 225 225 230
197 197 202 201 201 201 206 206 214 216 219 218 212 203 202 205 215 218 222 224 226 228
195 199 200 199 203 208 204 207 211 218 220 221 226 202 203 204 219 226 227 228 228 230
194 195 199 200 203 206 208 211 214 216 218 221 226 205 199 194 221 231 235 234 233 233
193 197 199 202 203 206 209 213 216 221 221 220 223 204 197 195 219 233 234 237 240 230
197 200 201 203 205 205 208 214 218 223 224 223 214 215 193 195 215 230 233 239 244 244